Flag for Brazil Weather past 2 weeks in Campinas, São Paulo, Brazil

Now
63 °F

Clear.


Feels Like: 63 °F
Forecast: 60 / 82 °F
Wind: 20 mph from Southeast

Location: Campinas Aeroporto

Current Time: Sep 17, 2014 at 12:38:31 AM

Latest Report: Sep 17, 2014 at 12:00 AM


Visibility: 10 mi

Pressure: 30.07 "Hg

Humidity: 77%

Dew point: 55 °F

Location of CampinasLocation

Historic Weather in Campinas — Graph

°F

Campinas temperature yesterday

Maximum temperature yesterday: 84 °F (at 2:00 PM)
Minimum temperature yesterday: 63 °F (at 11:00 PM)
Average temperature yesterday: 73 °F

Past Weeks' High & Low Weather Summary

 TemperatureHumidityPressure
High91 °F (Sep 11, 2:00 PM)100% (Sep 3, 2:00 AM)30.27 "Hg (Sep 3, 2:00 AM)
Low52 °F (Sep 6, 7:00 AM)12% (Sep 12, 3:00 PM)29.89 "Hg (Sep 2, 5:00 PM)
Average72 °F52%30.09 "Hg
* Reported Sep 1 11:00 PM — Sep 16 11:00 PM, Campinas, Weather by CustomWeather, © 2014

Note: Actual official high and low records may vary slightly from our data, if they occured in-between our weather recording intervals... More about our weather records

Advertising

Campinas weather history for previous 24 hours

 ConditionsComfort  
Time TempWeatherWind HumidityBarometerVisibility
11:00 PM
Sep 16
63 °FClear.22 mph77%30.07 "Hg10 mi
10:00 PM64 °FClear.20 mph78%30.09 "Hg10 mi
9:00 PM64 °FClear.20 mph78%30.07 "Hg10 mi
8:00 PM66 °FClear.16 mph73%30.04 "Hg10 mi
7:00 PM68 °FClear.21 mph69%30.04 "Hg10 mi
6:00 PM73 °FClear.17 mph53%30.01 "Hg10 mi
5:00 PM81 °FPassing clouds.12 mph42%29.98 "HgN/A
4:00 PM84 °FScattered clouds.7 mph33%29.98 "HgN/A
3:00 PM84 °FScattered clouds.9 mph33%29.98 "HgN/A
2:00 PM84 °FScattered clouds.8 mph35%29.98 "HgN/A
1:00 PM82 °FScattered clouds.10 mph40%30.01 "HgN/A
12:00 PM82 °FScattered clouds.8 mph40%30.04 "HgN/A
11:00 AM81 °FPassing clouds.7 mph42%30.04 "HgN/A
10:00 AM77 °FPassing clouds.5 mph47%30.07 "HgN/A
9:00 AM75 °FSunny.No wind54%30.07 "Hg10 mi
8:00 AM72 °FClear.5 mph57%30.04 "Hg5 mi
7:00 AM66 °FClear.5 mph68%30.04 "Hg4 mi
6:00 AM64 °FSunny.5 mph73%30.01 "Hg10 mi
5:00 AM66 °FClear.9 mph68%30.01 "Hg10 mi
4:00 AM66 °FClear.5 mph68%29.98 "Hg10 mi
3:00 AM70 °FClear.6 mph60%30.01 "Hg10 mi
2:00 AM70 °FClear.5 mph60%30.01 "Hg10 mi
1:00 AM72 °FClear.7 mph57%30.01 "Hg10 mi
12:00 AM73 °FClear.3 mph53%30.01 "Hg10 mi
Weather by CustomWeather, © 2014

See weather overviewHow to use our weather pages